DW8108 Weather Reports


Display with metric or nautical units.
time (UTC)temp
F
wind
direction
speed
MPH
gust
MPH
rain 1hr
in
rain 24hr
in
rain mn
in
humidity
%
barometer
mb
20260505183041 56 0.0 11.0 0.00 0.35 0.00 70 1008.5
20260505181539 57 0.0 12.0 0.00 0.35 0.00 70 1008.5
20260505180051 57 0.0 10.0 0.00 0.35 0.00 73 1008.6
20260505174546 57 0.0 9.0 0.00 0.35 0.00 71 1008.3
20260505173036 57 0.0 12.0 0.00 0.35 0.00 74 1008.5
20260505171536 56 0.0 5.0 0.00 0.35 0.00 75 1008.5
20260505170035 55 0.0 10.0 0.00 0.35 0.00 76 1008.4
20260505164540 55 0.0 7.0 0.00 0.35 0.00 75 1008.5
20260505163034 54 0.0 8.0 0.00 0.35 0.00 76 1008.7
20260505161533 53 0.0 8.0 0.00 0.35 0.00 81 1008.9
20260505153033 49 0.0 10.0 0.00 0.35 0.00 84 1008.3
20260505151532 48 0.0 7.0 0.00 0.35 0.00 83 1008.4
20260505124513 50 0.0 9.0 0.00 0.35 0.00 74 1007.4
20260505123022 50 0.0 11.0 0.00 0.35 0.00 74 1007.5
20260505121506 51 0.0 13.0 0.00 0.35 0.00 74 1007.0
20260505120011 51 0.0 13.0 0.00 0.35 0.00 74 1005.9
20260505114501 51 0.0 9.0 0.00 0.35 0.00 76 1005.8
20260505113100 51 0.0 5.0 0.00 0.35 0.00 75 1005.1
20260505111600 51 0.0 5.0 0.00 0.35 0.00 76 1004.9
20260505101605 53 0.0 7.0 0.00 0.35 0.00 83 1005.4
20260505100101 54 0.0 8.0 0.00 0.35 0.00 83 1005.5
20260505094543 54 0.0 11.0 0.00 0.35 0.00 82 1004.8
20260505093041 54 0.0 9.0 0.00 0.35 0.00 83 1004.5
20260505091539 54 0.0 9.0 0.00 0.35 0.00 85 1004.0
20260505090037 54 0.0 9.0 0.00 0.35 0.00 89 1003.8
20260505084534 54 0.0 7.0 0.00 0.35 0.00 91 1003.4
20260505083032 54 0.0 6.0 0.00 0.35 0.00 93 1003.5
20260505081532 55 0.0 6.0 0.00 0.35 0.00 93 1003.3
20260505080028 55 0.0 4.0 0.00 0.35 0.00 93 1003.0
20260505074526 55 0.0 3.0 0.00 0.35 0.00 93 1002.7
20260505073035 55 0.0 3.0 0.00 0.35 0.00 93 1002.4
20260505071523 55 0.0 7.0 0.00 0.35 0.00 93 1002.4
20260505070021 55 0.0 5.0 0.00 0.35 0.00 93 1002.0
20260505064520 55 0.0 7.0 0.00 0.35 0.00 93 1002.1
20260505063017 55 0.0 4.0 0.00 0.35 0.00 93 1001.8
20260505061523 56 0.0 7.0 0.00 0.35 0.00 92 1001.6
20260505060014 56 0.0 6.0 0.00 0.35 0.00 92 1001.6
20260505054513 56 0.0 9.0 0.00 0.35 0.00 92 1001.5
20260505053026 56 0.0 7.0 0.00 0.35 0.00 92 1001.3
20260505051526 56 0.0 8.0 0.01 0.35 0.00 92 1001.2
20260505041508 58 0.0 16.0 0.04 0.34 0.34 91 1001.4
20260505040006 58 0.0 18.0 0.05 0.34 0.34 91 1001.7
20260505034504 58 0.0 4.0 0.05 0.34 0.34 92 1000.8
20260505033005 58 0.0 7.0 0.06 0.33 0.33 91 1000.1
20260505031503 58 0.0 13.0 0.08 0.30 0.30 91 1001.6
20260505030002 58 0.0 5.0 0.09 0.28 0.28 90 1001.7
20260505024501 58 0.0 9.0 0.24 0.28 0.28 89 1001.5
20260505023006 58 0.0 16.0 0.27 0.27 0.27 89 1002.1
20260505021502 58 0.0 18.0 0.22 0.22 0.22 86 1001.8
20260505020000 60 0.0 21.0 0.19 0.19 0.19 81 1001.8
20260505014609 67 0.0 24.0 0.07 0.07 0.07 67 1002.4
20260505013058 71 0.0 19.0 0.00 0.00 0.00 56 1000.5
20260505011557 72 0.0 20.0 0.00 0.00 0.00 57 999.5
20260505010116 72 0.0 20.0 0.00 0.00 0.00 58 999.3
20260505004556 73 0.0 19.0 0.00 0.00 0.00 58 998.8
20260505003058 72 0.0 20.0 0.00 0.00 0.00 57 998.6
20260505001556 73 0.0 14.0 0.00 0.00 0.00 57 998.2
20260505000055 73 0.0 22.0 0.00 0.00 0.00 55 998.4
20260504234554 74 0.0 21.0 0.00 0.00 0.00 53 998.5
20260504233056 74 0.0 27.0 0.00 0.00 0.00 53 998.5
20260504231558 74 0.0 25.0 0.00 0.00 0.00 52 998.4
20260504230053 75 0.0 27.0 0.00 0.00 0.00 52 998.1
20260504224551 75 0.0 31.0 0.00 0.00 0.00 52 998.3
20260504223059 76 0.0 35.0 0.00 0.00 0.00 52 998.5
20260504221559 76 0.0 23.0 0.00 0.00 0.00 54 998.7
20260504220046 75 0.0 24.0 0.00 0.00 0.00 58 999.1
20260504214543 75 0.0 21.0 0.00 0.00 0.00 56 999.5
20260504213058 75 0.0 22.0 0.00 0.00 0.00 59 999.6
20260504211547 76 0.0 24.0 0.00 0.00 0.00 56 1000.1
20260504210041 76 0.0 23.0 0.00 0.00 0.00 56 1000.2
20260504204540 77 0.0 28.0 0.00 0.00 0.00 54 1000.2
20260504203048 77 0.0 21.0 0.00 0.00 0.00 50 999.9
20260504201538 77 0.0 26.0 0.00 0.00 0.00 49 1000.1
20260504200038 78 0.0 24.0 0.00 0.00 0.00 50 999.9
20260504194542 78 0.0 25.0 0.00 0.00 0.00 50 1000.0
20260504193036 78 0.0 24.0 0.00 0.00 0.00 50 1000.0
20260504191539 78 0.0 24.0 0.00 0.00 0.00 49 1000.0
20260504190033 76 0.0 19.0 0.00 0.00 0.00 51 1000.1
20260504184531 78 0.0 26.0 0.00 0.03 0.00 47 1000.2